Grazzanise, Italy

6:42 AM CET on March 25, 2017 (GMT +0100)
Grazzanise

Weather History for 16253 - November, 2013

Change the Weather History Date:

Friday, November 15, 2013

  Actual Average Record
Temperature  
Mean Temperature 56 °F -  
Max Temperature 63 °F 60 °F - ()
Min Temperature 49 °F 42 °F - ()
Degree Days  
Heating Degree Days 9    
Growing Degree Days 6 (Base 50)    
Moisture  
Dew Point 53 °F    
Average Humidity 90    
Maximum Humidity 94    
Minimum Humidity 80    
Precipitation  
Precipitation 0.00 in 0.16 in - ()
Sea Level Pressure  
Sea Level Pressure 29.89 in    
Wind  
Wind Speed 5 mph ()    
Max Wind Speed 14 mph    
Max Gust Speed -    
Visibility 7.0 miles    
Events Rain    
T = Trace of Precipitation, MM = Missing Value Source: Averaged Metar Reports

Daily Weather History Graph

Daily Weather History Graph

Search for Another Location

Airport or City:

Trip Planner

Search our weather history database for the weather conditions in past years. The results will help you decide how hot, cold, wet, or windy it might be!

Date:

Astronomy

Nov. 15, 2013 Rise Set
Actual Time 6:51 AM CET 4:44 PM CET
Civil Twilight 6:21 AM CET 5:14 PM CET
Nautical Twilight 5:48 AM CET 5:47 PM CET
Astronomical Twilight 5:15 AM CET 6:20 PM CET
Moon 3:32 PM CET (11/15) 4:29 AM CET (11/15)
Length of Visible Light 10h 52m
Length of Day
9h 53m
Waxing Gibbous, 95% of the Moon is Illuminated
Nov 15
Waxing Gibbous
Nov 17
Full
Nov 25
Last Quarter
Dec 3
New
Dec 9
First Quarter

Hourly Weather History & Observations

Time (CET) Temp. Dew Point Humidity Pressure Visibility Wind Dir Wind Speed Gust Speed Precip Events Conditions
12:55 AM 51.8 °F 50.0 °F 94% 29.89 in 6.2 mi NE 4.6 mph - N/A   Mostly Cloudy
1:00 AM 52 °F 50 °F 91% 29.90 in 6 mi NE 4.6 mph - -   Mostly Cloudy
1:55 AM 51.8 °F 50.0 °F 94% 29.86 in 6.2 mi NNE 3.5 mph - N/A   Mostly Cloudy
2:55 AM 53.6 °F 51.8 °F 94% 29.86 in 6.2 mi NE 4.6 mph - N/A   Mostly Cloudy
3:55 AM 51.8 °F 48.2 °F 88% 29.86 in 6.2 mi NE 3.5 mph - N/A   Scattered Clouds
4:00 AM 52 °F 49 °F 85% 29.87 in 6 mi NE 3.5 mph - -   Partly Cloudy
4:55 AM 50.0 °F 48.2 °F 94% 29.86 in 6.2 mi NE 3.5 mph - N/A   Mostly Cloudy
5:55 AM 50.0 °F 46.4 °F 87% 29.86 in 6.2 mi NE 4.6 mph - N/A   Mostly Cloudy
6:55 AM 50.0 °F 46.4 °F 87% 29.86 in 6.2 mi NNE 4.6 mph - N/A   Scattered Clouds
7:00 AM 50 °F 47 °F 84% 29.86 in 6 mi NNE 4.6 mph - -   Partly Cloudy
7:55 AM 51.8 °F 48.2 °F 88% 29.86 in 6.2 mi NNE 5.8 mph - N/A   Mostly Cloudy
8:55 AM 53.6 °F 51.8 °F 94% 29.86 in 6.2 mi ENE 3.5 mph - N/A   Scattered Clouds
9:55 AM 55.4 °F 53.6 °F 94% 29.89 in 6.2 mi North 5.8 mph - N/A Rain Light Rain
10:00 AM 56 °F 53 °F 86% 29.90 in 8 mi North 5.8 mph - - Rain Light Rain
10:55 AM 59.0 °F 55.4 °F 88% 29.89 in 6.2 mi North 5.8 mph - N/A   Scattered Clouds
11:55 AM 59.0 °F 57.2 °F 94% 29.89 in 6.2 mi North 8.1 mph - N/A   Scattered Clouds
12:55 PM 60.8 °F 59.0 °F 94% 29.89 in 6.2 mi North 4.6 mph - N/A   Mostly Cloudy
1:00 PM 61 °F 58 °F 88% 29.90 in 12 mi North 4.6 mph - -   Partly Cloudy
1:55 PM 62.6 °F 59.0 °F 88% 29.89 in 6.2 mi North 4.6 mph - N/A   Mostly Cloudy
2:55 PM 60.8 °F 59.0 °F 94% 29.89 in 6.2 mi North 2.3 mph - N/A   Mostly Cloudy
3:55 PM 60.8 °F 59.0 °F 94% 29.89 in 6.2 mi NNW 3.5 mph - N/A   Mostly Cloudy
4:00 PM 61 °F 58 °F 88% 29.89 in 11 mi NNW 3.5 mph - -   Partly Cloudy
4:55 PM 59.0 °F 57.2 °F 94% 29.89 in 6.2 mi North 5.8 mph - N/A   Mostly Cloudy
5:55 PM 59.0 °F 57.2 °F 94% 29.89 in 6.2 mi NNE 4.6 mph - N/A   Scattered Clouds
6:55 PM 57.2 °F 53.6 °F 88% 29.92 in 6.2 mi NE 4.6 mph - N/A   Scattered Clouds
7:00 PM 57 °F 54 °F 88% 29.92 in 11 mi NE 4.6 mph - -   Scattered Clouds
7:55 PM 57.2 °F 55.4 °F 94% 29.92 in 6.2 mi NE 6.9 mph - N/A   Scattered Clouds
8:55 PM 59.0 °F 55.4 °F 88% 29.92 in 6.2 mi ENE 12.7 mph - N/A   Scattered Clouds
9:55 PM 59.0 °F 55.4 °F 88% 29.95 in 6.2 mi ENE 11.5 mph - N/A   Scattered Clouds
10:00 PM 59 °F 54 °F 80% 29.95 in 16 mi ENE 11.5 mph - -   Partly Cloudy
10:55 PM 59.0 °F 53.6 °F 82% 29.95 in 6.2 mi ENE 13.8 mph - N/A   Scattered Clouds
11:55 PM 59.0 °F 53.6 °F 82% 29.95 in 6.2 mi ENE 11.5 mph - N/A   Scattered Clouds